Time,TemperatureF,DewpointF,PressureIn,WindDirection,WindDirectionDegrees,WindSpeedMPH,WindSpeedGustMPH,Humidity,HourlyPrecipIn,Conditions,Clouds,dailyrainin,SoftwareType,DateUTC
2014-01-18 00:00:00,37.4,35.0,29.79,NW,326,3.0,3.0,91,0.00,,,0.00,Wunderground v.1.15,2014-01-18 05:00:00,
2014-01-18 00:05:00,37.4,34.7,29.79,North,358,3.0,3.0,90,0.00,,,0.00,Wunderground v.1.15,2014-01-18 05:05:00,
2014-01-18 00:10:00,37.3,34.6,29.79,North,356,3.0,3.0,90,0.00,,,0.00,Wunderground v.1.15,2014-01-18 05:10:00,
2014-01-18 00:15:00,37.3,34.9,29.79,North,356,2.0,3.0,91,0.00,,,0.00,Wunderground v.1.15,2014-01-18 05:15:00,
2014-01-18 00:20:00,37.2,34.8,29.79,ESE,112,0.0,0.0,91,0.00,,,0.00,Wunderground v.1.15,2014-01-18 05:20:00,
2014-01-18 00:30:00,36.8,34.4,29.78,SSE,156,2.0,2.0,91,0.00,,,0.00,Wunderground v.1.15,2014-01-18 05:30:00,
2014-01-18 00:35:00,36.7,34.0,29.78,SSE,159,2.0,2.0,90,0.00,,,0.00,Wunderground v.1.15,2014-01-18 05:35:00,
2014-01-18 00:40:00,36.5,34.1,29.78,SE,137,1.0,1.0,91,0.00,,,0.00,Wunderground v.1.15,2014-01-18 05:40:00,
2014-01-18 00:50:00,36.4,34.0,29.78,SE,137,0.0,0.0,91,0.00,,,0.00,Wunderground v.1.15,2014-01-18 05:50:00,
2014-01-18 01:00:00,36.3,33.9,29.77,SE,144,0.0,1.0,91,0.00,,,0.00,Wunderground v.1.15,2014-01-18 06:00:00,
2014-01-18 01:10:00,36.3,34.2,29.77,SE,137,1.0,1.0,92,0.00,,,0.00,Wunderground v.1.15,2014-01-18 06:10:00,
2014-01-18 01:20:00,36.1,34.0,29.77,SE,137,1.0,1.0,92,0.00,,,0.00,Wunderground v.1.15,2014-01-18 06:20:00,
2014-01-18 01:30:00,36.0,33.9,29.76,SE,137,0.0,0.0,92,0.00,,,0.00,Wunderground v.1.15,2014-01-18 06:30:00,
2014-01-18 01:40:00,36.0,33.9,29.76,SE,138,1.0,2.0,92,0.00,,,0.00,Wunderground v.1.15,2014-01-18 06:40:00,
2014-01-18 01:50:00,36.1,34.0,29.76,SE,142,1.0,1.0,92,0.00,,,0.00,Wunderground v.1.15,2014-01-18 06:50:00,
2014-01-18 02:00:00,36.2,34.1,29.76,SSE,149,2.0,2.0,92,0.00,,,0.00,Wunderground v.1.15,2014-01-18 07:00:00,
2014-01-18 02:10:00,36.2,34.1,29.76,SE,139,1.0,1.0,92,0.00,,,0.00,Wunderground v.1.15,2014-01-18 07:10:00,
2014-01-18 02:20:00,36.2,34.1,29.75,SSE,148,2.0,2.0,92,0.00,,,0.00,Wunderground v.1.15,2014-01-18 07:20:00,
2014-01-18 02:30:00,36.3,34.2,29.75,SE,135,2.0,2.0,92,0.00,,,0.00,Wunderground v.1.15,2014-01-18 07:30:00,
2014-01-18 02:40:00,36.6,34.8,29.75,SE,135,2.0,2.0,93,0.00,,,0.00,Wunderground v.1.15,2014-01-18 07:40:00,
2014-01-18 02:50:00,36.8,35.0,29.74,ESE,118,2.0,3.0,93,0.00,,,0.00,Wunderground v.1.15,2014-01-18 07:50:00,
2014-01-18 03:00:00,37.0,34.9,29.73,ESE,121,2.0,2.0,92,0.00,,,0.00,Wunderground v.1.15,2014-01-18 08:00:00,
2014-01-18 03:10:00,37.3,35.2,29.73,SE,142,2.0,3.0,92,0.00,,,0.00,Wunderground v.1.15,2014-01-18 08:10:00,
2014-01-18 03:20:00,37.4,35.0,29.72,SSE,150,2.0,3.0,91,0.00,,,0.00,Wunderground v.1.15,2014-01-18 08:20:00,
2014-01-18 03:30:00,37.8,35.1,29.72,SSE,158,2.0,2.0,90,0.00,,,0.00,Wunderground v.1.15,2014-01-18 08:30:00,
2014-01-18 03:40:00,38.0,35.0,29.72,SE,139,2.0,3.0,89,0.00,,,0.00,Wunderground v.1.15,2014-01-18 08:40:00,
2014-01-18 03:50:00,38.2,35.2,29.70,SE,139,3.0,4.0,89,0.00,,,0.00,Wunderground v.1.15,2014-01-18 08:50:00,
2014-01-18 04:00:00,38.3,35.1,29.70,SE,146,2.0,2.0,88,0.00,,,0.00,Wunderground v.1.15,2014-01-18 09:00:00,
2014-01-18 04:10:00,38.4,35.2,29.70,SE,129,2.0,2.0,88,0.00,,,0.00,Wunderground v.1.15,2014-01-18 09:10:00,
2014-01-18 04:20:00,38.1,34.9,29.68,SE,141,2.0,2.0,88,0.00,,,0.00,Wunderground v.1.15,2014-01-18 09:20:00,
2014-01-18 04:30:00,37.8,34.6,29.67,SE,128,3.0,3.0,88,0.00,,,0.00,Wunderground v.1.15,2014-01-18 09:30:00,
2014-01-18 04:40:00,37.5,34.3,29.67,SE,132,3.0,3.0,88,0.00,,,0.00,Wunderground v.1.15,2014-01-18 09:40:00,
2014-01-18 04:50:00,37.1,34.2,29.67,SE,139,2.0,2.0,89,0.00,,,0.00,Wunderground v.1.15,2014-01-18 09:50:00,
2014-01-18 05:00:00,37.0,34.1,29.67,ESE,118,2.0,2.0,89,0.00,,,0.00,Wunderground v.1.15,2014-01-18 10:00:00,
2014-01-18 05:10:00,37.0,34.1,29.67,ESE,116,0.0,0.0,89,0.00,,,0.00,Wunderground v.1.15,2014-01-18 10:10:00,
2014-01-18 05:20:00,37.0,34.1,29.67,ESE,116,0.0,0.0,89,0.00,,,0.00,Wunderground v.1.15,2014-01-18 10:20:00,
2014-01-18 05:30:00,37.1,33.9,29.66,East,89,1.0,1.0,88,0.00,,,0.00,Wunderground v.1.15,2014-01-18 10:30:00,
2014-01-18 05:40:00,37.2,34.0,29.66,East,90,1.0,2.0,88,0.00,,,0.00,Wunderground v.1.15,2014-01-18 10:40:00,
2014-01-18 05:50:00,37.4,33.9,29.66,East,83,1.0,1.0,87,0.00,,,0.00,Wunderground v.1.15,2014-01-18 10:50:00,
2014-01-18 06:00:00,37.4,34.2,29.66,East,85,0.0,1.0,88,0.00,,,0.00,Wunderground v.1.15,2014-01-18 11:00:00,
2014-01-18 06:10:00,37.4,33.9,29.66,ESE,123,1.0,2.0,87,0.00,,,0.00,Wunderground v.1.15,2014-01-18 11:10:00,
2014-01-18 06:20:00,37.4,33.9,29.66,ESE,104,1.0,3.0,87,0.00,,,0.00,Wunderground v.1.15,2014-01-18 11:20:00,
2014-01-18 06:30:00,37.4,33.6,29.63,ENE,69,3.0,3.0,86,0.00,,,0.00,Wunderground v.1.15,2014-01-18 11:30:00,
2014-01-18 06:40:00,37.9,33.2,29.63,ESE,118,4.0,4.0,83,0.00,,,0.00,Wunderground v.1.15,2014-01-18 11:40:00,
2014-01-18 06:50:00,38.5,33.2,29.61,SE,142,4.0,5.0,81,0.00,,,0.00,Wunderground v.1.15,2014-01-18 11:50:00,
2014-01-18 07:00:00,38.6,33.3,29.63,SE,127,4.0,4.0,81,0.00,,,0.00,Wunderground v.1.15,2014-01-18 12:00:00,
2014-01-18 07:10:00,38.7,33.4,29.63,ESE,102,4.0,4.0,81,0.00,,,0.00,Wunderground v.1.15,2014-01-18 12:10:00,
2014-01-18 07:20:00,38.9,33.9,29.61,SE,133,3.0,3.0,82,0.00,,,0.00,Wunderground v.1.15,2014-01-18 12:20:00,
2014-01-18 07:30:00,38.8,34.1,29.63,SE,131,3.0,4.0,83,0.00,,,0.00,Wunderground v.1.15,2014-01-18 12:30:00,
2014-01-18 07:40:00,38.7,34.0,29.63,ESE,112,3.0,3.0,83,0.00,,,0.00,Wunderground v.1.15,2014-01-18 12:40:00,
2014-01-18 07:50:00,38.7,34.3,29.61,ESE,116,3.0,6.0,84,0.00,,,0.00,Wunderground v.1.15,2014-01-18 12:50:00,
2014-01-18 08:00:00,38.8,34.4,29.61,East,95,3.0,3.0,84,0.00,,,0.00,Wunderground v.1.15,2014-01-18 13:00:00,
2014-01-18 08:10:00,38.9,34.5,29.61,ESE,103,2.0,2.0,84,0.00,,,0.00,Wunderground v.1.15,2014-01-18 13:10:00,
2014-01-18 08:20:00,39.0,34.6,29.61,SE,137,2.0,2.0,84,0.00,,,0.00,Wunderground v.1.15,2014-01-18 13:20:00,
2014-01-18 08:30:00,39.1,35.0,29.61,ESE,122,1.0,2.0,85,0.00,,,0.00,Wunderground v.1.15,2014-01-18 13:30:00,
2014-01-18 08:40:00,39.1,35.0,29.61,SE,124,2.0,2.0,85,0.00,,,0.00,Wunderground v.1.15,2014-01-18 13:40:00,
2014-01-18 08:50:00,39.2,35.1,29.60,ESE,114,3.0,3.0,85,0.00,,,0.00,Wunderground v.1.15,2014-01-18 13:50:00,
2014-01-18 09:00:00,39.4,35.3,29.60,SSE,159,3.0,4.0,85,0.00,,,0.00,Wunderground v.1.15,2014-01-18 14:00:00,
2014-01-18 09:10:00,39.5,35.1,29.60,ENE,78,3.0,3.0,84,0.00,,,0.00,Wunderground v.1.15,2014-01-18 14:10:00,
2014-01-18 09:20:00,39.6,34.9,29.59,ESE,114,3.0,6.0,83,0.00,,,0.00,Wunderground v.1.15,2014-01-18 14:20:00,
2014-01-18 09:30:00,39.6,34.9,29.59,South,169,3.0,3.0,83,0.00,,,0.00,Wunderground v.1.15,2014-01-18 14:30:00,
2014-01-18 09:40:00,39.5,35.1,29.59,ESE,107,4.0,4.0,84,0.00,,,0.00,Wunderground v.1.15,2014-01-18 14:40:00,
2014-01-18 09:50:00,39.5,35.4,29.59,SSW,195,2.0,2.0,85,0.00,,,0.00,Wunderground v.1.15,2014-01-18 14:50:00,
2014-01-18 10:00:00,39.3,35.8,29.59,ENE,76,2.0,3.0,87,0.00,,,0.01,Wunderground v.1.15,2014-01-18 15:00:00,
2014-01-18 10:10:00,39.0,35.7,29.59,SE,127,4.0,4.0,88,0.00,,,0.01,Wunderground v.1.15,2014-01-18 15:10:00,
2014-01-18 10:20:00,38.7,35.7,29.58,ENE,76,5.0,9.0,89,0.04,,,0.02,Wunderground v.1.15,2014-01-18 15:20:00,
2014-01-18 10:30:00,38.6,35.9,29.57,East,89,5.0,8.0,90,0.04,,,0.02,Wunderground v.1.15,2014-01-18 15:30:00,
2014-01-18 10:40:00,38.4,35.7,29.57,SE,145,5.0,6.0,90,0.00,,,0.02,Wunderground v.1.15,2014-01-18 15:40:00,
2014-01-18 10:50:00,38.4,36.0,29.56,East,85,6.0,6.0,91,0.00,,,0.03,Wunderground v.1.15,2014-01-18 15:50:00,
2014-01-18 11:00:00,38.8,36.7,29.55,SE,134,5.0,5.0,92,0.00,,,0.03,Wunderground v.1.15,2014-01-18 16:00:00,
2014-01-18 11:10:00,38.8,36.7,29.55,ESE,116,5.0,5.0,92,0.00,,,0.03,Wunderground v.1.15,2014-01-18 16:10:00,
2014-01-18 11:20:00,39.0,36.9,29.53,East,93,6.0,13.0,92,0.00,,,0.03,Wunderground v.1.15,2014-01-18 16:20:00,
2014-01-18 11:30:00,39.0,37.1,29.52,East,100,6.0,11.0,93,0.00,,,0.03,Wunderground v.1.15,2014-01-18 16:30:00,
2014-01-18 11:40:00,39.4,37.5,29.52,East,97,4.0,5.0,93,0.00,,,0.03,Wunderground v.1.15,2014-01-18 16:40:00,
2014-01-18 11:50:00,39.7,37.8,29.52,East,87,3.0,3.0,93,0.00,,,0.03,Wunderground v.1.15,2014-01-18 16:50:00,
2014-01-18 12:00:00,40.0,38.1,29.52,South,182,2.0,2.0,93,0.00,,,0.03,Wunderground v.1.15,2014-01-18 17:00:00,
2014-01-18 12:15:00,41.3,39.7,29.50,ESE,106,1.0,3.0,94,0.00,,,0.03,Wunderground v.1.15,2014-01-18 17:15:00,
2014-01-18 12:20:00,41.5,39.9,29.50,SSE,153,1.0,1.0,94,0.00,,,0.03,Wunderground v.1.15,2014-01-18 17:20:00,
2014-01-18 12:30:00,41.8,40.2,29.50,SE,133,2.0,2.0,94,0.00,,,0.03,Wunderground v.1.15,2014-01-18 17:30:00,
2014-01-18 12:40:00,42.1,40.2,29.50,South,172,2.0,6.0,93,0.00,,,0.03,Wunderground v.1.15,2014-01-18 17:40:00,
2014-01-18 12:50:00,42.2,40.3,29.49,SSW,204,3.0,3.0,93,0.00,,,0.03,Wunderground v.1.15,2014-01-18 17:50:00,
2014-01-18 13:00:00,41.6,39.2,29.50,West,281,1.0,1.0,91,0.00,,,0.03,Wunderground v.1.15,2014-01-18 18:00:00,
2014-01-18 13:10:00,41.8,39.6,29.50,South,169,1.0,2.0,92,0.00,,,0.03,Wunderground v.1.15,2014-01-18 18:10:00,
2014-01-18 13:20:00,41.6,39.4,29.49,SSE,164,3.0,3.0,92,0.00,,,0.03,Wunderground v.1.15,2014-01-18 18:20:00,
2014-01-18 13:30:00,40.1,37.4,29.49,North,6,3.0,3.0,90,0.00,,,0.03,Wunderground v.1.15,2014-01-18 18:30:00,
2014-01-18 13:40:00,39.2,37.1,29.49,NNE,21,3.0,6.0,92,0.00,,,0.03,Wunderground v.1.15,2014-01-18 18:40:00,
2014-01-18 13:50:00,39.4,37.3,29.49,NW,313,4.0,6.0,92,0.00,,,0.03,Wunderground v.1.15,2014-01-18 18:50:00,
2014-01-18 14:00:00,37.9,35.2,29.50,NNE,27,7.0,7.0,90,0.00,,,0.03,Wunderground v.1.15,2014-01-18 19:00:00,
2014-01-18 14:10:00,36.8,34.7,29.50,ENE,64,7.0,9.0,92,0.00,,,0.03,Wunderground v.1.15,2014-01-18 19:10:00,
2014-01-18 14:20:00,36.2,34.1,29.50,NNW,333,9.0,11.0,92,0.00,,,0.03,Wunderground v.1.15,2014-01-18 19:20:00,
2014-01-18 14:30:00,36.2,34.1,29.51,NNE,21,9.0,9.0,92,0.00,,,0.03,Wunderground v.1.15,2014-01-18 19:30:00,
2014-01-18 14:40:00,36.0,33.9,29.51,North,360,7.0,7.0,92,0.00,,,0.03,Wunderground v.1.15,2014-01-18 19:40:00,
2014-01-18 14:50:00,35.8,33.7,29.51,NNW,339,7.0,11.0,92,0.00,,,0.03,Wunderground v.1.15,2014-01-18 19:50:00,
2014-01-18 15:00:00,35.7,33.9,29.52,NW,320,5.0,14.0,93,0.00,,,0.03,Wunderground v.1.15,2014-01-18 20:00:00,
2014-01-18 15:10:00,35.6,33.8,29.52,NNW,330,6.0,7.0,93,0.00,,,0.03,Wunderground v.1.15,2014-01-18 20:10:00,
2014-01-18 15:20:00,35.5,33.7,29.53,North,357,6.0,6.0,93,0.00,,,0.03,Wunderground v.1.15,2014-01-18 20:20:00,
2014-01-18 15:30:00,35.6,33.8,29.53,NNE,33,4.0,5.0,93,0.00,,,0.03,Wunderground v.1.15,2014-01-18 20:30:00,
2014-01-18 15:40:00,35.7,33.9,29.53,ENE,57,5.0,5.0,93,0.00,,,0.03,Wunderground v.1.15,2014-01-18 20:40:00,
2014-01-18 15:50:00,35.7,33.6,29.55,North,351,5.0,5.0,92,0.00,,,0.03,Wunderground v.1.15,2014-01-18 20:50:00,
2014-01-18 16:00:00,35.9,33.8,29.55,West,277,5.0,5.0,92,0.00,,,0.03,Wunderground v.1.15,2014-01-18 21:00:00,
2014-01-18 16:10:00,35.9,33.5,29.55,NNW,337,5.0,5.0,91,0.00,,,0.03,Wunderground v.1.15,2014-01-18 21:10:00,
2014-01-18 16:20:00,35.9,33.5,29.55,WNW,292,5.0,6.0,91,0.00,,,0.03,Wunderground v.1.15,2014-01-18 21:20:00,
2014-01-18 16:30:00,35.9,33.3,29.56,NW,316,6.0,6.0,90,0.00,,,0.03,Wunderground v.1.15,2014-01-18 21:30:00,
2014-01-18 16:40:00,35.7,33.1,29.56,NNW,332,6.0,6.0,90,0.00,,,0.03,Wunderground v.1.15,2014-01-18 21:40:00,
2014-01-18 16:50:00,35.5,32.6,29.57,NNW,329,7.0,9.0,89,0.00,,,0.03,Wunderground v.1.15,2014-01-18 21:50:00,
2014-01-18 17:00:00,35.5,32.3,29.59,NW,325,8.0,10.0,88,0.00,,,0.03,Wunderground v.1.15,2014-01-18 22:00:00,
2014-01-18 17:10:00,35.4,31.6,29.59,SW,233,9.0,13.0,86,0.00,,,0.03,Wunderground v.1.15,2014-01-18 22:10:00,
2014-01-18 17:20:00,35.6,31.8,29.59,NW,304,7.0,10.0,86,0.00,,,0.03,Wunderground v.1.15,2014-01-18 22:20:00,
2014-01-18 17:30:00,35.5,31.1,29.60,North,356,9.0,9.0,84,0.00,,,0.03,Wunderground v.1.15,2014-01-18 22:30:00,
2014-01-18 17:40:00,35.5,31.1,29.60,NW,304,7.0,8.0,84,0.00,,,0.03,Wunderground v.1.15,2014-01-18 22:40:00,
2014-01-18 17:50:00,35.3,30.4,29.60,NW,311,8.0,8.0,82,0.00,,,0.03,Wunderground v.1.15,2014-01-18 22:50:00,
2014-01-18 18:00:00,35.1,29.9,29.60,WSW,246,8.0,15.0,81,0.00,,,0.03,Wunderground v.1.15,2014-01-18 23:00:00,
2014-01-18 18:10:00,34.9,29.7,29.60,NNW,334,9.0,13.0,81,0.00,,,0.03,Wunderground v.1.15,2014-01-18 23:10:00,
2014-01-18 18:20:00,34.7,29.2,29.61,West,260,9.0,9.0,80,0.00,,,0.03,Wunderground v.1.15,2014-01-18 23:20:00,
2014-01-18 18:30:00,34.2,28.4,29.61,WNW,285,9.0,9.0,79,0.00,,,0.03,Wunderground v.1.15,2014-01-18 23:30:00,
2014-01-18 18:40:00,33.9,27.8,29.61,North,8,9.0,11.0,78,0.00,,,0.03,Wunderground v.1.15,2014-01-18 23:40:00,
2014-01-18 18:50:00,33.7,27.6,29.61,NNW,335,10.0,10.0,78,0.00,,,0.03,Wunderground v.1.15,2014-01-18 23:50:00,
2014-01-18 19:00:00,33.6,27.5,29.61,WNW,301,8.0,9.0,78,0.00,,,0.03,Wunderground v.1.15,2014-01-19 00:00:00,
2014-01-18 19:10:00,33.5,27.7,29.61,NW,312,8.0,8.0,79,0.00,,,0.03,Wunderground v.1.15,2014-01-19 00:10:00,
2014-01-18 19:20:00,33.2,27.4,29.61,WNW,295,8.0,13.0,79,0.00,,,0.03,Wunderground v.1.15,2014-01-19 00:20:00,
2014-01-18 19:30:00,33.1,27.3,29.62,WNW,299,8.0,9.0,79,0.00,,,0.03,Wunderground v.1.15,2014-01-19 00:30:00,
2014-01-18 19:40:00,33.2,27.7,29.62,SW,236,7.0,7.0,80,0.00,,,0.03,Wunderground v.1.15,2014-01-19 00:40:00,
2014-01-18 19:50:00,33.1,27.3,29.63,North,360,8.0,10.0,79,0.00,,,0.03,Wunderground v.1.15,2014-01-19 00:50:00,
2014-01-18 20:00:00,33.0,27.2,29.63,NNW,338,8.0,8.0,79,0.00,,,0.03,Wunderground v.1.15,2014-01-19 01:00:00,
2014-01-18 20:10:00,32.8,27.0,29.63,SW,233,9.0,9.0,79,0.00,,,0.03,Wunderground v.1.15,2014-01-19 01:10:00,
2014-01-18 20:20:00,32.6,26.8,29.64,WNW,297,9.0,18.0,79,0.00,,,0.03,Wunderground v.1.15,2014-01-19 01:20:00,
2014-01-18 20:30:00,32.6,26.5,29.65,WNW,301,8.0,13.0,78,0.00,,,0.03,Wunderground v.1.15,2014-01-19 01:30:00,
2014-01-18 20:40:00,32.5,26.7,29.65,NE,36,9.0,9.0,79,0.00,,,0.03,Wunderground v.1.15,2014-01-19 01:40:00,
2014-01-18 20:50:00,32.5,26.7,29.64,WSW,250,8.0,8.0,79,0.00,,,0.03,Wunderground v.1.15,2014-01-19 01:50:00,
2014-01-18 21:00:00,32.4,26.6,29.66,WNW,296,8.0,8.0,79,0.00,,,0.03,Wunderground v.1.15,2014-01-19 02:00:00,
2014-01-18 21:10:00,32.3,26.2,29.66,WNW,288,8.0,10.0,78,0.00,,,0.03,Wunderground v.1.15,2014-01-19 02:10:00,
2014-01-18 21:20:00,32.2,26.1,29.66,West,260,8.0,8.0,78,0.00,,,0.03,Wunderground v.1.15,2014-01-19 02:20:00,
2014-01-18 21:30:00,32.2,26.1,29.67,NW,325,7.0,8.0,78,0.00,,,0.03,Wunderground v.1.15,2014-01-19 02:30:00,
2014-01-18 21:40:00,32.1,25.7,29.67,WNW,302,8.0,8.0,77,0.00,,,0.03,Wunderground v.1.15,2014-01-19 02:40:00,
2014-01-18 21:50:00,32.0,25.6,29.67,WNW,297,7.0,7.0,77,0.00,,,0.03,Wunderground v.1.15,2014-01-19 02:50:00,
2014-01-18 22:00:00,31.9,25.5,29.67,NW,308,8.0,9.0,77,0.00,,,0.03,Wunderground v.1.15,2014-01-19 03:00:00,
2014-01-18 22:10:00,31.9,25.5,29.67,West,266,7.0,7.0,77,0.00,,,0.03,Wunderground v.1.15,2014-01-19 03:10:00,
2014-01-18 22:20:00,31.9,25.8,29.67,West,279,6.0,6.0,78,0.00,,,0.03,Wunderground v.1.15,2014-01-19 03:20:00,
2014-01-18 22:30:00,31.8,26.0,29.67,NNW,328,6.0,6.0,79,0.00,,,0.03,Wunderground v.1.15,2014-01-19 03:30:00,
2014-01-18 22:40:00,31.7,26.2,29.67,NW,318,5.0,5.0,80,0.00,,,0.03,Wunderground v.1.15,2014-01-19 03:40:00,
2014-01-18 22:50:00,31.4,25.6,29.67,NW,304,5.0,5.0,79,0.00,,,0.03,Wunderground v.1.15,2014-01-19 03:50:00,
2014-01-18 23:00:00,31.2,25.4,29.67,NNW,340,6.0,6.0,79,0.00,,,0.03,Wunderground v.1.15,2014-01-19 04:00:00,
2014-01-18 23:10:00,31.1,25.3,29.67,NW,314,6.0,11.0,79,0.00,,,0.03,Wunderground v.1.15,2014-01-19 04:10:00,
2014-01-18 23:20:00,31.2,25.7,29.66,West,271,6.0,6.0,80,0.00,,,0.03,Wunderground v.1.15,2014-01-19 04:20:00,
2014-01-18 23:30:00,31.1,25.7,29.66,NW,313,5.0,7.0,80,0.00,,,0.03,Wunderground v.1.15,2014-01-19 04:30:00,
2014-01-18 23:40:00,30.9,25.2,29.66,NNE,21,5.0,5.0,79,0.00,,,0.03,Wunderground v.1.15,2014-01-19 04:40:00,
2014-01-18 23:50:00,30.7,25.0,29.67,NW,318,6.0,6.0,79,0.00,,,0.03,Wunderground v.1.15,2014-01-19 04:50:00,